Klamath Falls, OR

9:35 PM PDT on May 26, 2017 (GMT -0700)
Klamath Falls International

Weather History for KLMT - May, 2012

Change the Weather History Date:

Monday, May 7, 2012

  Actual Average Record
Temperature  
Mean Temperature 54 °F 49 °F  
Max Temperature 74 °F 63 °F 86 °F (1992)
Min Temperature 33 °F 35 °F 24 °F (1999)
Degree Days  
Heating Degree Days 11 16  
Month to date heating degree days 140 118  
Since 1 July heating degree days 6283 6437  
Cooling Degree Days 0 0  
Month to date cooling degree days 0 0  
Year to date cooling degree days 0 0  
Growing Degree Days 4 (Base 50)    
Moisture  
Dew Point 29 °F    
Average Humidity 43    
Maximum Humidity 70    
Minimum Humidity 15    
Precipitation  
Precipitation 0.00 in 0.07 in 0.65 in (1952)
Month to date precipitation 0.06 0.49  
Year to date precipitation 4.59 6.90  
Sea Level Pressure  
Sea Level Pressure 30.17 in    
Wind  
Wind Speed 4 mph (NNE)    
Max Wind Speed 13 mph    
Max Gust Speed 16 mph    
Visibility 10 miles    
Events      
T = Trace of Precipitation, MM = Missing Value Source: NWS Daily Summary

Daily Weather History Graph

Daily Weather History Graph

Search for Another Location

Airport or City:

Trip Planner

Search our weather history database for the weather conditions in past years. The results will help you decide how hot, cold, wet, or windy it might be!

Date:

Astronomy

May. 07, 2012 Rise Set
Actual Time 5:54 AM PDT 8:13 PM PDT
Civil Twilight 5:22 AM PDT 8:44 PM PDT
Nautical Twilight 4:44 AM PDT 9:23 PM PDT
Astronomical Twilight 4:01 AM PDT 10:06 PM PDT
Moon 10:32 PM PDT (5/7) 7:03 AM PDT (5/7)
Length of Visible Light 15h 21m
Length of Day
14h 19m
Waning Gibbous, 96% of the Moon is Illuminated
May 7
Waning Gibbous
May 12
Last Quarter
May 20
New
May 28
First Quarter
Jun 4
Full

Hourly Weather History & Observations

Time (PDT) Temp. Windchill Dew Point Humidity Pressure Visibility Wind Dir Wind Speed Gust Speed Precip Events Conditions
12:53 AM 45.0 °F 41.8 °F 27.0 °F 49% 30.24 in 10.0 mi NNW 5.8 mph - N/A   Clear
1:53 AM 43.0 °F 41.3 °F 32.0 °F 65% 30.23 in 10.0 mi NNE 3.5 mph - N/A   Clear
2:53 AM 44.1 °F 42.5 °F 32.0 °F 63% 30.23 in 10.0 mi NE 3.5 mph - N/A   Clear
3:53 AM 43.0 °F - 32.0 °F 65% 30.24 in 10.0 mi Calm Calm - N/A   Clear
4:53 AM 39.9 °F 37.8 °F 30.9 °F 70% 30.24 in 10.0 mi North 3.5 mph - N/A   Clear
5:53 AM 36.0 °F 33.3 °F 26.1 °F 67% 30.24 in 10.0 mi NE 3.5 mph - N/A   Clear
6:00 AM 35.6 °F 32.8 °F 26.6 °F 70% 30.28 in 10.0 mi ENE 3.5 mph - N/A   Clear
6:53 AM 43.0 °F - 28.9 °F 58% 30.23 in 10.0 mi Calm Calm - N/A   Clear
7:53 AM 48.9 °F - 30.0 °F 48% 30.23 in 10.0 mi ENE 5.8 mph - N/A   Clear
8:53 AM 55.0 °F - 28.9 °F 37% 30.22 in 10.0 mi NNE 8.1 mph - N/A   Clear
9:53 AM 59.0 °F - 28.0 °F 31% 30.19 in 10.0 mi ENE 11.5 mph - N/A   Clear
10:53 AM 60.1 °F - 28.9 °F 31% 30.19 in 10.0 mi Variable 5.8 mph - N/A   Clear
11:53 AM 63.0 °F - 30.0 °F 29% 30.18 in 10.0 mi Calm Calm - N/A   Clear
12:53 PM 66.0 °F - 27.0 °F 23% 30.17 in 10.0 mi Variable 3.5 mph - N/A   Clear
1:53 PM 68.0 °F - 27.0 °F 21% 30.14 in 10.0 mi Calm Calm - N/A   Partly Cloudy
2:53 PM 71.1 °F - 26.1 °F 19% 30.12 in 10.0 mi South 10.4 mph - N/A   Partly Cloudy
3:53 PM 71.1 °F - 21.9 °F 16% 30.12 in 10.0 mi Calm Calm - N/A   Partly Cloudy
4:53 PM 73.9 °F - 23.0 °F 15% 30.11 in 10.0 mi NE 3.5 mph - N/A   Partly Cloudy
5:53 PM 71.1 °F - 23.0 °F 16% 30.11 in 10.0 mi WNW 3.5 mph - N/A   Partly Cloudy
6:53 PM 70.0 °F - 24.1 °F 18% 30.09 in 10.0 mi West 4.6 mph - N/A   Partly Cloudy
7:53 PM 62.1 °F - 33.1 °F 34% 30.08 in 10.0 mi NNW 8.1 mph - N/A   Partly Cloudy
8:53 PM 55.9 °F - 34.0 °F 44% 30.09 in 10.0 mi West 4.6 mph - N/A   Scattered Clouds
9:53 PM 52.0 °F - 36.0 °F 54% 30.09 in 7.0 mi Calm Calm - N/A   Partly Cloudy
10:53 PM 45.0 °F - 35.1 °F 68% 30.11 in 10.0 mi Calm Calm - N/A   Clear
11:53 PM 45.0 °F - 36.0 °F 71% 30.11 in 10.0 mi Calm Calm - N/A   Clear